Photometre #846[NE_1.6_Dp] Glasgow_MO AOT

File : 20200926_846.hum

26/09/2020,07:16:45,TEMP=6.3,BA=5.68,STAT.A,ExtBa=12.40
26/09/2020,07:21:28,TEMP=6.7,BA=5.68,STAT.A,ExtBa=12.40
26/09/2020,07:26:59,TEMP=7.0,BA=5.68,STAT.A,ExtBa=12.30
26/09/2020,07:33:35,TEMP=7.1,BA=5.68,STAT.A,ExtBa=12.30
26/09/2020,07:41:36,TEMP=7.8,BA=5.68,STAT.A,ExtBa=12.30
26/09/2020,07:51:34,TEMP=8.1,BA=5.68,STAT.A,ExtBa=12.30
26/09/2020,08:04:19,TEMP=8.8,BA=5.68,STAT.B,ExtBa=12.40
26/09/2020,08:13:43,TEMP=10.0,BA=5.64,STAT.A,ExtBa=12.10
26/09/2020,08:17:28,TEMP=9.8,BA=5.64,STAT.A,ExtBa=12.20
26/09/2020,08:25:26,TEMP=10.2,BA=5.68,STAT.A,ExtBa=12.30
26/09/2020,08:34:37,TEMP=10.9,BA=5.68,STAT.A,ExtBa=12.30
26/09/2020,08:45:21,TEMP=11.7,BA=5.68,STAT.C,ExtBa=12.30
26/09/2020,09:08:56,TEMP=13.2,BA=5.64,STAT.b=5.0
26/09/2020,09:09:38,TEMP=13.3,BA=5.64,STAT.A,ExtBa=12.10
26/09/2020,09:12:50,TEMP=13.0,BA=5.64,STAT.F,ExtBa=12.10
26/09/2020,09:37:08,TEMP=14.1,BA=5.60,STAT.b=5.0
26/09/2020,09:37:43,TEMP=14.1,BA=5.60,STAT.b=5.0
26/09/2020,09:39:48,TEMP=13.8,BA=5.60,STAT.D,ExtBa=12.10
26/09/2020,09:54:49,TEMP=14.3,BA=5.68,STAT.D,ExtBa=12.20
26/09/2020,10:09:51,TEMP=14.8,BA=5.68,STAT.F,ExtBa=12.20
26/09/2020,10:35:03,TEMP=15.5,BA=5.60,STAT.D,ExtBa=12.10
26/09/2020,10:39:49,TEMP=15.5,BA=5.60,STAT.D,ExtBa=12.10
26/09/2020,10:54:49,TEMP=15.7,BA=5.64,STAT.D,ExtBa=12.20
26/09/2020,11:09:51,TEMP=16.4,BA=5.64,STAT.F,ExtBa=12.20
26/09/2020,11:34:09,TEMP=17.2,BA=5.60,STAT.D,ExtBa=12.00
26/09/2020,11:39:49,TEMP=16.6,BA=5.60,STAT.D,ExtBa=12.10
26/09/2020,11:54:49,TEMP=16.7,BA=5.64,STAT.D,ExtBa=12.20
26/09/2020,12:09:51,TEMP=16.5,BA=5.64,STAT.F,ExtBa=12.20
26/09/2020,12:35:29,TEMP=17.9,BA=5.56,STAT.D,ExtBa=12.00
26/09/2020,12:39:49,TEMP=17.1,BA=5.56,STAT.D,ExtBa=12.10
26/09/2020,12:54:49,TEMP=16.1,BA=5.64,STAT.D,ExtBa=12.20
26/09/2020,13:09:51,TEMP=16.8,BA=5.64,STAT.F,ExtBa=12.20
26/09/2020,13:33:56,TEMP=17.8,BA=5.56,STAT.D,ExtBa=12.00
26/09/2020,13:39:49,TEMP=17.2,BA=5.56,STAT.D,ExtBa=12.10
26/09/2020,13:54:49,TEMP=17.1,BA=5.64,STAT.D,ExtBa=12.20
26/09/2020,14:09:50,TEMP=17.3,BA=5.64,STAT.F,ExtBa=12.20
26/09/2020,14:34:15,TEMP=18.0,BA=5.56,STAT.D,ExtBa=12.00
26/09/2020,14:39:49,TEMP=17.4,BA=5.56,STAT.D,ExtBa=12.10
26/09/2020,14:54:49,TEMP=17.1,BA=5.64,STAT.D,ExtBa=12.20
26/09/2020,15:09:50,TEMP=17.0,BA=5.64,STAT.F,ExtBa=12.20
26/09/2020,15:35:08,TEMP=17.5,BA=5.56,STAT.A,ExtBa=12.00
26/09/2020,15:38:27,TEMP=17.0,BA=5.56,STAT.C,ExtBa=12.10
26/09/2020,16:03:11,TEMP=17.0,BA=5.56,STAT.A,ExtBa=12.00
26/09/2020,16:06:25,TEMP=16.5,BA=5.56,STAT.A,ExtBa=12.10
26/09/2020,16:08:38,TEMP=16.5,BA=5.56,STAT.A,ExtBa=12.10
26/09/2020,16:10:54,TEMP=16.5,BA=5.52,STAT.A,ExtBa=12.10
26/09/2020,16:15:21,TEMP=16.0,BA=5.52,STAT.B,ExtBa=12.10
26/09/2020,16:28:06,TEMP=15.6,BA=5.52,STAT.A,ExtBa=12.10
26/09/2020,16:38:04,TEMP=15.1,BA=5.52,STAT.A,ExtBa=12.10
26/09/2020,16:46:06,TEMP=14.8,BA=5.60,STAT.A,ExtBa=12.10
26/09/2020,16:52:41,TEMP=14.6,BA=5.64,STAT.A,ExtBa=12.10
26/09/2020,16:58:12,TEMP=14.4,BA=5.64,STAT.A,ExtBa=12.10
26/09/2020,17:02:55,TEMP=14.2,BA=5.60,STAT.A,ExtBa=12.10